Overview Statistics Trail Chart Weather Telemetry Raw packets
 

This is the latest recevied weather packets stored in our database for station/object AI5BL. If no packets are shown the sender has not sent any weather packets the latest 10 day(s).

<< 105 106 107 108 109 110 111 >>
Time Temp. Humidity Pressure Rain* Wind** Luminosity Snow
1787853279 26.11° C 86% 1017.4 hPa 0 mm - 113 W/m² -
1787852973 26.67° C 85% 1017.6 hPa 0 mm - 123 W/m² -
1787852668 26.67° C 85% 1017.6 hPa 0 mm - 147 W/m² -
1787852367 26.67° C 84% 1017.5 hPa 0 mm - 164 W/m² -
1787852066 26.67° C 83% 1017.5 hPa 0 mm - 187 W/m² -
1787851766 27.22° C 83% 1017.5 hPa 0 mm - 209 W/m² -
1787851461 27.22° C 85% 1017.4 hPa 0 mm - 243 W/m² -
1787851157 26.67° C 83% 1017.6 hPa 0 mm - 251 W/m² -
1787850852 26.67° C 85% 1017.7 hPa 0 mm - 244 W/m² -
1787850548 26.67° C 83% 1017.8 hPa 0 mm - 251 W/m² -
1787850243 26.67° C 88% 1017.8 hPa 0 mm - 276 W/m² -
1787849942 26.67° C 88% 1017.9 hPa 0 mm - 243 W/m² -
1787849637 26.11° C 88% 1018 hPa 0 mm - 220 W/m² -
1787849337 26.11° C 91% 1018.1 hPa 0 mm - 202 W/m² -
1787849031 26.11° C 86% 1018.2 hPa 0 mm - 208 W/m² -
1787848731 26.11° C 86% 1018.4 hPa 0 mm - 237 W/m² -
1787848426 26.67° C 85% 1018.5 hPa 0 mm - 265 W/m² -
1787848126 26.67° C 87% 1018.6 hPa 0 mm - 284 W/m² -
1787847820 26.67° C 86% 1018.3 hPa 0 mm - 340 W/m² -
1787847515 26.67° C 85% 1018.7 hPa 0 mm - 284 W/m² -
1787847211 26.67° C 88% 1018.7 hPa 0 mm - 466 W/m² -
1787846907 26.11° C 90% 1018.7 hPa 0 mm - 415 W/m² -
1787846606 26.11° C 92% 1018.9 hPa 0 mm - 322 W/m² -
1787846301 25.56° C 91% 1018.9 hPa 0 mm - 291 W/m² -
1787845998 25° C 90% 1018.9 hPa 0 mm - 219 W/m² -

* Rain latest hour (hover to see other rain measurements)
** Current wind speed in m/s (hover to see current wind gust speed)